Location: Complexul Astronomic Baia Mare
(47.6577°N, 23.5639°E)
Time: 12:54:55
(UTC+03:00)

ISS - Pass Details

Date: 01 April 2017
Orbit: 401 x 408 km, 51.6° (Epoch: 17 August)

Event Time Altitude Azimuth Distance (km) Brightness Sun altitude
Rises 21:23:23 0° 262° (W) 2,321 1.0 -14.9°
Reaches altitude 10° 21:25:30 10° 268° (W) 1,466 0.0 -15.3°
Maximum altitude 21:28:43 52° 346° (NNW) 518 -3.1 -15.7°
Enters shadow 21:30:41 21° 56° (NE) 989 -2.2 -16.0°
